Tracking 19709 objects as of 19-Jun-2019
HD Live streaming from Space Station
objects crossing your sky now

METEOR 1-10 DEB


METEOR 1-10 DEB is no longer on orbit


NORAD ID: 36931
Int'l Code: 1971-120U
Perigee: N/A
Apogee: N/A
Inclination: N/A
Period: N/A
Semi major axis: N/A
RCS: N/A
Launch date: December 29, 1971
Source: Commonwealth of Independent States (former USSR) (CIS)
Launch site: PLESETSK MISSILE AND SPACE COMPLEX (PKMTR)
Decay date: 2014-03-15

Note: This is SATELLITE DEBRIS
aabbcc
Your satellite tracking list
Your tracking list is empty




NASA's NSSDC Master Catalog

Two Line Element Set (TLE):
1 36931U 71120U   13335.88516282  .00174666  00000-0  89670-2 0  9990
2 36931 081.2086 042.8685 0010573 266.0062 067.6046 15.15654324201390
Source of the keplerian elements: AFSPC